Regional Weather Roundup
Issued by NWS Upton, NY

Current Version | Previous Version | Graphics & Text | Print | Product List | Glossary Off
Versions: 1 2 3 4 5 6 7 8 9 10 11 12 13 14 15 16 17 18 19 20 21 22 23 24 25 26 27 28 29 30 31 32 33 34 35 36 37 38 39 40 41 42 43 44 45 46 47 48 49 50
000 ASUS41 KOKX 290208 RWROKX REGIONAL WEATHER ROUNDUP NATIONAL WEATHER SERVICE NEW YORK NY 1000 PM EDT TUE MAR 28 2017 NOTE: "FAIR" INDICATES FEW OR NO CLOUDS BELOW 12,000 FEET WITH NO SIGNIFICANT WEATHER AND/OR OBSTRUCTIONS TO VISIBILITY. NYZ071-072-176-178-NJZ106-104-290300- NEW YORK CITY METRO AREA CITY SKY/WX TMP DP RH WIND PRES REMARKS Central Park LGT RAIN 43 42 97 NE5 29.96R FOG Wall St Helipt CLOUDY 43 43 100 E8 29.94S LaGuardia APRT LGT RAIN 43 40 89 NE10 29.94R FOG Kennedy INTL LGT RAIN 44 42 93 N14 29.94R Breezy Point N/A 41 N/A N/A N12 N/A Newark/Liberty LGT RAIN 43 43 100 NE7 29.93F Teterboro DRIZZLE 44 42 93 N5 29.93S FOG $$ NYZ177-179-078>081-290300- LONG ISLAND NEW YORK CITY SKY/WX TMP DP RH WIND PRES REMARKS Jones Beach N/A 41 N/A N/A NE13 N/A Matinecock PT N/A 37 N/A N/A E5 N/A WCI 34 Farmingdale LGT RAIN 43 41 93 NE8 29.92S FOG MacArthur/ISP LGT RAIN 42 42 100 NE7 29.92S FOG Shirley RAIN 41 41 100 VRB5 29.92F FOG Westhampton RAIN 40 38 93 NE13 29.93R FOG WCI 32 East Hampton CLOUDY 39 38 95 NE9 29.92R WCI 33 Montauk N/A 41 40 96 NE9 29.92S $$ NYZ052-065-067-290300- HUDSON VALLEY CITY SKY/WX TMP DP RH WIND PRES REMARKS White Plains LGT RAIN 44 42 93 N6 29.92S FOG Newburgh CLOUDY 43 43 100 CALM 29.95R FOG Montgomery LGT RAIN 44 43 96 CALM 29.93S FOG Poughkeepsie LGT RAIN 42 42 100 CALM 29.94S FOG Albany LGT RAIN 45 43 93 N12G17 29.99R VSB 1 $$ NJZ001-105-106-008-010-013-015-019>022-104-290300- NEW JERSEY CITY SKY/WX TMP DP RH WIND PRES REMARKS Newark/Liberty LGT RAIN 43 43 100 NE7 29.93F Teterboro DRIZZLE 44 42 93 N5 29.93S FOG Caldwell LGT RAIN 44 42 93 E5 29.94S FOG Somerville LGT RAIN 46 45 96 CALM 29.92S FOG Linden DRIZZLE 44 42 93 CALM 29.94S Sussex LGT RAIN 46 45 96 NE5 29.93S Andover N/A 45 44 97 CALM 29.93R Trenton LGT RAIN 47 45 93 N6 29.92R Millville CLOUDY 50 50 100 N8 29.90S Atlantic City CLOUDY 49 47 93 N9 29.91R FOG Wrightstown DRIZZLE 45 44 96 N7 29.90R Toms River CLOUDY 44 44 100 N6 29.93R FOG Belmar LGT RAIN 42 41 96 N12 29.93R $$ PAZ047>061-062-071-290300- EASTERN PENNSYLVANIA CITY SKY/WX TMP DP RH WIND PRES REMARKS Philadelphia CLOUDY 49 46 90 NE5 29.92S Allentown CLOUDY 49 46 90 CALM 29.93R Scranton CLOUDY 50 48 93 NW12 29.97R $$ CTZ002-004>006-009-010-012-RIZ004-006-007-MAZ004-011-015-290300- SOUTHERN NEW ENGLAND IN CT CITY SKY/WX TMP DP RH WIND PRES REMARKS Bradley INTL RAIN 41 40 96 N7 29.95S FOG Hartford LGT RAIN 42 41 96 N6 29.95S FOG Danbury LGT RAIN 43 42 97 CALM 29.94S Wtrbury/Oxford CLOUDY 41 37 87 N6 29.94R Bridgeport RAIN 42 39 89 CALM 29.94S FOG Meriden LGT RAIN 45 42 89 N6 29.94S New Haven LGT RAIN 44 42 93 N5 29.93S FOG Chester NOT AVBL Groton CLOUDY 44 41 89 NE8 29.92S Wilimantic RAIN 42 41 96 E5 29.95S FOG IN RI CITY SKY/WX TMP DP RH WIND PRES REMARKS Providence CLOUDY 40 38 93 N8 29.95S WCI 34 Block Island LGT RAIN 39 39 100 NE13G20 29.91F WCI 31 Westerly LGT RAIN 42 41 96 N8 29.93S FOG IN MA CITY SKY/WX TMP DP RH WIND PRES REMARKS Boston RAIN 39 38 96 NE7 29.97S FOG WCI 34 Worcester RAIN 35 34 96 NE7 29.93S FOG WCI 29 Westfield RAIN 40 40 100 N5 29.96R FOG Provincetown LGT RAIN 40 39 97 NE8 29.95F WCI 34 Nantucket LGT RAIN 41 39 93 E12 29.89F $$ ANZ330-335-338-340-345-350-353-355-290300- COASTAL MARINE OBSERVATIONS STATION/POSITION TIME SKY/WX TEMP WIND PRES VSBY WAVE AIR SEA DIR/SP/G HT/PER (UTC) (F) (DEG/KT/KT) (MB) (MI) (FT/S) NY HARB ENTRANCE 0050 42 42 360/ 10/ 12 1012.6 4/ 9 20 S FIRE ISLAND 0050 41 41 30/ 16/ 19 1011.0 5/ 5 GREAT SOUTH BAY NOT AVBL 23 SSW MONTAUK P 0050 41 42 1012.0 5/ 5 15 E BARNEGAT LI 0130 44 N/A 4/ 9 HUDSON CANYON 0050 46 44 190/ 4/ 4 1010.9 4/ 8 KINGS POINT 0124 40 39 1013.7 EXECUTION ROCKS NOT AVBL CENTRAL LI SOUND 0115 40 80/ 10/ 12 N/A 2/25 EASTERN LI SOUND NOT AVBL ROBBINS REEF 0124 43 360/ 11/ 14 1013.9 $$ >>>>>>>>>>>>>>>>>>>>>>>>>>>> KEY <<<<<<<<<<<<<<<<<<<<<<<<<<< > < > SKY/WX - Sky Condition/Present Weather < > TMP - Temperature in Fahrenheit < > DP - Dew Point in Fahrenheit < > RH - Relative Humidity in Percent < > WIND - Direction (from) and Speed in MPH < > PRES - Mean Sea Level Pressure (inches of Hg) < > WCI - Wind Chill Index < > VSB - VISIBILITY IN MILES < > HX - HEAT INDEX < > TC - TEMPERATURE IN CELSIUS < > VRB - VARIABLE WIND DIRECTION < > < >>>>>>>>>>>>>>>>>>>>>>>>>>>> KEY <<<<<<<<<<<<<<<<<<<<<<<<<<<

USA.gov is the U.S. government's official web portal to all federal, state and local government web resources and services.